When you browse on this site, cookies collect data to enhance your experience and personalize the content and advertising you see.
Visit our Privacy Policy to learn more. By continuing to use the site, you agree to this use of cookies and data.
  • In Lithuania
  • List of Countries
  • For 7 days
  • Water Temperature
  • Satellite Maps
  • Weather Map
  • Weather Widgets
  • user-avatar
    Login

    Hourly Weather Dorchester

    Today, 17 June, Monday

    Time Temperature Precipitation Wind Pressure Humidity
    00:00 +11°C° 0 mm 4 mps 758 mmHg 95%
    01:00 +10°C° 0 mm 4 mps 758 mmHg 95%
    02:00 +10°C° 0 mm 4 mps 758 mmHg 96%
    03:00 +10°C° 0 mm 4 mps 758 mmHg 96%
    04:00 +11°C° 0 mm 4 mps 758 mmHg 94%
    05:00 +11°C° 0 mm 4 mps 758 mmHg 93%
    06:00 +12°C° 0 mm 5 mps 758 mmHg 91%
    07:00 +13°C° 0 mm 5 mps 758 mmHg 88%
    08:00 +14°C° 0 mm 5 mps 758 mmHg 84%
    09:00 +15°C° 0 mm 6 mps 758 mmHg 81%
    10:00 +15°C° 0 mm 6 mps 758 mmHg 79%
    11:00 +16°C° 0 mm 6 mps 758 mmHg 78%
    12:00 +16°C° 0 mm 6 mps 758 mmHg 77%
    13:00 +16°C° 0 mm 5 mps 758 mmHg 77%
    14:00 +16°C° 0 mm 5 mps 758 mmHg 78%
    15:00 +16°C° 0 mm 5 mps 758 mmHg 78%
    16:00 +16°C° 0 mm 5 mps 758 mmHg 79%
    17:00 +16°C° 0 mm 5 mps 757 mmHg 81%
    18:00 +17°C° 0 mm 4 mps 757 mmHg 82%
    19:00 +14°C° 0 mm 4 mps 758 mmHg 86%
    20:00 +13°C° 0 mm 3 mps 758 mmHg 90%
    21:00 +12°C° 0 mm 3 mps 758 mmHg 94%
    22:00 +11°C° 0 mm 3 mps 758 mmHg 94%
    23:00 +10°C° 0 mm 2 mps 758 mmHg 95%

    Tomorrow, 18 June, Tuesday

    Time Temperature Precipitation Wind Pressure Humidity
    00:00 +10°C° 0 mm 2 mps 758 mmHg 95%
    01:00 +10°C° 0 mm 2 mps 758 mmHg 95%
    02:00 +9°C° 0 mm 2 mps 757 mmHg 95%
    03:00 +9°C° 0 mm 2 mps 757 mmHg 95%
    04:00 +11°C° 0 mm 1 mps 757 mmHg 93%
    05:00 +12°C° 0 mm 1 mps 757 mmHg 92%
    06:00 +12°C° 0 mm 1 mps 757 mmHg 90%
    07:00 +14°C° 0 mm 1 mps 757 mmHg 86%
    08:00 +15°C° 0 mm 1 mps 757 mmHg 82%
    09:00 +18°C° 0 mm 1 mps 756 mmHg 78%
    10:00 +18°C° 0 mm 1 mps 756 mmHg 75%
    11:00 +19°C° 0 mm 1 mps 756 mmHg 72%
    12:00 +20°C° 0 mm 1 mps 756 mmHg 70%
    13:00 +19°C° 0.6 mm 1 mps 755 mmHg 78%
    14:00 +17°C° 0.6 mm 2 mps 755 mmHg 86%
    15:00 +16°C° 0.6 mm 2 mps 754 mmHg 94%
    16:00 +16°C° 0.3 mm 2 mps 754 mmHg 94%
    17:00 +16°C° 0.3 mm 2 mps 754 mmHg 95%
    18:00 +16°C° 0.3 mm 2 mps 754 mmHg 95%
    19:00 +15°C° 0.2 mm 2 mps 754 mmHg 96%
    20:00 +15°C° 0.2 mm 2 mps 753 mmHg 97%
    21:00 +14°C° 0.2 mm 2 mps 753 mmHg 97%
    22:00 +14°C° 0 mm 2 mps 753 mmHg 97%
    23:00 +13°C° 0 mm 2 mps 752 mmHg 97%

    Day after tomorrow, 19 June, Wednesday

    Time Temperature Precipitation Wind Pressure Humidity
    00:00 +13°C° 0 mm 2 mps 752 mmHg 97%
    01:00 +13°C° 0 mm 2 mps 751 mmHg 98%
    02:00 +13°C° 0 mm 2 mps 751 mmHg 98%
    03:00 +13°C° 0 mm 2 mps 750 mmHg 98%
    04:00 +13°C° 1.4 mm 3 mps 750 mmHg 98%
    05:00 +13°C° 1.4 mm 3 mps 750 mmHg 98%
    06:00 +13°C° 1.4 mm 3 mps 750 mmHg 98%
    07:00 +13°C° 4.6 mm 3 mps 749 mmHg 98%
    08:00 +13°C° 4.6 mm 3 mps 749 mmHg 98%
    09:00 +13°C° 4.6 mm 4 mps 749 mmHg 98%
    10:00 +14°C° 1 mm 4 mps 750 mmHg 97%
    11:00 +14°C° 1 mm 4 mps 750 mmHg 96%
    12:00 +14°C° 1 mm 4 mps 750 mmHg 95%
    13:00 +14°C° 0.2 mm 4 mps 751 mmHg 94%
    14:00 +15°C° 0.2 mm 5 mps 751 mmHg 92%
    15:00 +15°C° 0.2 mm 5 mps 751 mmHg 91%
    16:00 +15°C° 0.1 mm 5 mps 751 mmHg 89%
    17:00 +15°C° 0.1 mm 4 mps 752 mmHg 88%
    18:00 +16°C° 0.1 mm 3 mps 752 mmHg 87%
    19:00 +14°C° 0 mm 3 mps 753 mmHg 89%
    20:00 +13°C° 0 mm 3 mps 753 mmHg 92%
    21:00 +12°C° 0 mm 3 mps 753 mmHg 95%
    22:00 +11°C° 0 mm 3 mps 753 mmHg 95%
    23:00 +10°C° 0 mm 3 mps 753 mmHg 95%

    20 June, Thursday

    Time Temperature Precipitation Wind Pressure Humidity
    00:00 +9°C° 0 mm 3 mps 753 mmHg 95%
    01:00 +8°C° 0 mm 3 mps 754 mmHg 95%
    02:00 +8°C° 0 mm 3 mps 754 mmHg 96%
    03:00 +8°C° 0 mm 3 mps 754 mmHg 97%
    04:00 +9°C° 0 mm 3 mps 754 mmHg 95%
    05:00 +10°C° 0 mm 4 mps 754 mmHg 93%
    06:00 +11°C° 0 mm 4 mps 754 mmHg 92%
    07:00 +12°C° 0 mm 4 mps 755 mmHg 87%
    08:00 +14°C° 0 mm 5 mps 755 mmHg 82%
    09:00 +15°C° 0 mm 5 mps 755 mmHg 77%
    10:00 +15°C° 0.2 mm 5 mps 755 mmHg 76%
    11:00 +16°C° 0.2 mm 5 mps 755 mmHg 74%
    12:00 +17°C° 0.2 mm 5 mps 755 mmHg 72%
    13:00 +17°C° 0.3 mm 5 mps 755 mmHg 74%
    14:00 +16°C° 0.3 mm 5 mps 755 mmHg 75%
    15:00 +16°C° 0.3 mm 5 mps 755 mmHg 76%
    16:00 +16°C° 0.1 mm 5 mps 755 mmHg 78%
    17:00 +15°C° 0.1 mm 4 mps 755 mmHg 80%
    18:00 +15°C° 0.1 mm 4 mps 756 mmHg 82%
    19:00 +13°C° 0 mm 3 mps 756 mmHg 84%
    20:00 +12°C° 0 mm 3 mps 756 mmHg 87%
    21:00 +10°C° 0 mm 3 mps 756 mmHg 90%
    22:00 +10°C° 0 mm 3 mps 756 mmHg 90%
    23:00 +9°C° 0 mm 3 mps 756 mmHg 90%

    21 June, Friday

    Time Temperature Precipitation Wind Pressure Humidity
    00:00 +9°C° 0 mm 3 mps 756 mmHg 91%
    01:00 +8°C° 0 mm 3 mps 756 mmHg 92%
    02:00 +8°C° 0 mm 3 mps 756 mmHg 92%
    03:00 +8°C° 0 mm 3 mps 756 mmHg 93%
    04:00 +9°C° 0 mm 3 mps 756 mmHg 92%
    05:00 +10°C° 0 mm 4 mps 757 mmHg 91%
    06:00 +10°C° 0 mm 4 mps 757 mmHg 90%
    07:00 +12°C° 0.1 mm 4 mps 757 mmHg 86%
    08:00 +13°C° 0.1 mm 4 mps 757 mmHg 83%
    09:00 +15°C° 0.1 mm 5 mps 758 mmHg 79%
    10:00 +15°C° 0.2 mm 5 mps 758 mmHg 79%
    11:00 +15°C° 0.2 mm 5 mps 758 mmHg 78%
    12:00 +15°C° 0.2 mm 5 mps 758 mmHg 78%
    13:00 +16°C° 0.1 mm 5 mps 758 mmHg 75%
    14:00 +16°C° 0.1 mm 5 mps 758 mmHg 72%
    15:00 +17°C° 0.1 mm 5 mps 758 mmHg 69%
    16:00 +16°C° 0.1 mm 5 mps 758 mmHg 72%
    17:00 +17°C° 0.1 mm 4 mps 758 mmHg 75%
    18:00 +17°C° 0.1 mm 3 mps 758 mmHg 79%
    19:00 +14°C° 0 mm 3 mps 759 mmHg 83%
    20:00 +12°C° 0 mm 3 mps 759 mmHg 86%
    21:00 +12°C° 0 mm 2 mps 759 mmHg 90%
    22:00 +10°C° 0 mm 2 mps 760 mmHg 91%
    23:00 +9°C° 0 mm 2 mps 760 mmHg 92%

    22 June, Saturday

    Time Temperature Precipitation Wind Pressure Humidity
    00:00 +10°C° 0 mm 1 mps 760 mmHg 93%
    01:00 +9°C° 0 mm 1 mps 760 mmHg 93%
    02:00 +9°C° 0 mm 1 mps 759 mmHg 93%
    03:00 +8°C° 0 mm 1 mps 759 mmHg 93%
    04:00 +9°C° 0 mm 1 mps 760 mmHg 91%
    05:00 +10°C° 0 mm 1 mps 760 mmHg 90%
    06:00 +11°C° 0 mm 1 mps 760 mmHg 89%
    07:00 +13°C° 0 mm 1 mps 760 mmHg 85%
    08:00 +14°C° 0 mm 2 mps 760 mmHg 82%
    09:00 +16°C° 0 mm 2 mps 760 mmHg 78%
    10:00 +17°C° 0.1 mm 2 mps 760 mmHg 75%
    11:00 +18°C° 0.1 mm 2 mps 760 mmHg 71%
    12:00 +19°C° 0.1 mm 2 mps 760 mmHg 68%
    13:00 +19°C° 0.2 mm 2 mps 760 mmHg 66%
    14:00 +20°C° 0.2 mm 1 mps 760 mmHg 65%
    15:00 +21°C° 0.2 mm 1 mps 759 mmHg 63%
    16:00 +19°C° 0.2 mm 2 mps 759 mmHg 69%
    17:00 +18°C° 0.2 mm 3 mps 759 mmHg 75%
    18:00 +18°C° 0.2 mm 3 mps 759 mmHg 81%
    19:00 +16°C° 0.1 mm 3 mps 760 mmHg 85%
    20:00 +15°C° 0.1 mm 2 mps 760 mmHg 89%
    21:00 +14°C° 0.1 mm 2 mps 760 mmHg 93%
    22:00 +13°C° 0 mm 2 mps 760 mmHg 93%
    23:00 +13°C° 0 mm 2 mps 760 mmHg 93%
    Show more